Location: Fort Wayne
(41.1310°N, 85.1290°W)
Time: 23:06:42
(UTC-04:00)

Courier 1B Rocket - All Passes

Search period start: 25 July 2014 00:00
Search period end: 04 August 2014 00:00
Orbit: 921 x 1202 km, 28.2° (Epoch: 24 July)

Date Brightness Start Highest point End Pass type
(mag) Time Alt. Az. Time Alt. Az. Time Alt. Az.
25 Jul - 15:48:17 10° S 15:51:40 13° SSE 15:55:01 10° SE daylight
25 Jul - 17:38:15 10° SW 17:44:20 26° SSE 17:50:14 10° ESE daylight
25 Jul - 19:30:50 10° WSW 19:37:12 30° S 19:43:15 10° SE daylight
25 Jul - 21:24:40 10° WSW 21:29:53 21° SSW 21:34:53 10° SSE visible
26 Jul - 16:37:48 10° SSW 16:43:28 22° SSE 16:49:02 10° ESE daylight
26 Jul - 18:29:49 10° SW 18:36:19 30° S 18:42:33 10° ESE daylight
26 Jul - 20:23:13 10° WSW 20:29:08 25° SSW 20:34:45 10° SE daylight
26 Jul - 22:18:48 10° SW 22:21:35 13° SSW 22:24:18 10° S visible
27 Jul - 15:37:42 10° SSW 15:42:37 18° SSE 15:47:30 10° ESE daylight
27 Jul - 17:28:57 10° SW 17:35:24 29° S 17:41:41 10° ESE daylight
27 Jul - 19:21:57 10° WSW 19:28:17 29° S 19:34:22 10° SE daylight
27 Jul - 21:16:22 10° WSW 21:20:55 17° SSW 21:25:18 10° SSE daylight
28 Jul - 14:38:16 10° S 14:41:49 14° SSE 14:45:22 10° SE daylight
28 Jul - 16:28:16 10° SW 16:34:29 26° SSE 16:40:37 10° ESE daylight
28 Jul - 18:20:49 10° WSW 18:27:24 31° S 18:33:45 10° SE daylight
28 Jul - 20:14:38 10° WSW 20:20:10 22° SSW 20:25:29 10° SSE daylight
29 Jul - 15:27:52 10° SSW 15:33:36 23° SSE 15:39:20 10° ESE daylight
29 Jul - 17:19:50 10° SW 17:26:28 31° S 17:32:57 10° ESE daylight
29 Jul - 19:13:12 10° WSW 19:19:21 26° SSW 19:25:17 10° SE daylight
29 Jul - 21:08:39 10° SW 21:11:53 13° SSW 21:15:02 10° S daylight
30 Jul - 14:27:50 10° SSW 14:32:45 18° SSE 14:37:43 10° ESE daylight
30 Jul - 16:19:01 10° SW 16:25:31 29° S 16:31:59 10° ESE daylight
30 Jul - 18:11:57 10° WSW 18:18:27 29° S 18:24:48 10° SE daylight
30 Jul - 20:06:19 10° WSW 20:11:10 18° SSW 20:15:52 10° SSE daylight
31 Jul - 13:28:30 10° S 13:31:58 14° SSE 13:35:29 10° SE daylight
31 Jul - 15:18:25 10° SW 15:24:36 27° SSE 15:30:50 10° ESE daylight
31 Jul - 17:10:53 10° WSW 17:17:31 31° S 17:24:05 10° SE daylight
31 Jul - 19:04:37 10° WSW 19:10:22 23° SSW 19:15:57 10° SSE daylight
01 Aug - 14:18:06 10° SSW 14:23:43 23° SSE 14:29:28 10° ESE daylight
01 Aug - 16:09:58 10° SW 16:16:34 31° S 16:23:12 10° ESE daylight
01 Aug - 18:03:14 10° WSW 18:09:30 27° SSW 18:15:39 10° SE daylight
01 Aug - 19:58:34 10° SW 20:02:06 14° SSW 20:05:35 10° S daylight
02 Aug - 13:18:10 10° SSW 13:22:55 18° SSE 13:27:47 10° ESE daylight
02 Aug - 15:09:14 10° SW 15:15:38 29° S 15:22:09 10° ESE daylight
02 Aug - 17:02:04 10° WSW 17:08:34 30° S 17:15:04 10° SE daylight
02 Aug - 18:56:21 10° WSW 19:01:20 18° SSW 19:06:15 10° SSE daylight
03 Aug - 12:18:58 10° S 12:22:10 13° SSE 12:25:26 10° SE daylight
03 Aug - 14:08:44 10° SW 14:14:44 26° SSE 14:20:55 10° ESE daylight
03 Aug - 16:01:04 10° WSW 16:07:38 31° S 16:14:16 10° SE daylight
03 Aug - 17:54:43 10° WSW 18:00:30 23° SSW 18:06:14 10° SSE daylight
